Regional Weather Roundup
Issued by NWS Sterling, VA

Home | Current Version | Previous Version | Graphics & Text | Print | Product List | Glossary On
Versions: 1 2 3 4 5 6 7 8 9 10 11 12 13 14 15 16 17 18 19 20 21 22 23 24 25 26 27 28 29 30 31 32 33 34 35 36 37 38 39 40 41 42 43 44 45 46 47 48 49 50
000
ASUS41 KLWX 300610
RWRLWX

REGIONAL WEATHER ROUNDUP
NATIONAL WEATHER SERVICE BALTIMORE MD/WASHINGTON DC
200 AM EDT WED JUL 30 2014

Note: "FAIR" indicates few or no clouds below 12,000 feet
with no significant weather and/or obstructions to visibility.
 TC=TEMPERATURE CELSIUS

 * =Non NWS site. Station does not report precipitation (e.g. rain,
    snow, etc.), thunder, or fog.

DCZ001-MDZ009-015-VAZ040>042-051-053>054-300700-
WASHINGTON METRO
  /KDAA//-FT BELVOIR

CITY           SKY/WX    TMP DP  RH WIND       PRES   REMARKS
WASHINGTON NAT PTCLDY    65  49  56 W5        30.03F
DULLES         CLEAR     52  48  86 CALM      30.04S
ANDREWS AFB    CLEAR     60  51  71 W3        30.02F
QUANTICO       CLEAR     59  53  80 NW12      30.04F
COLLEGE PARK*  CLEAR     55  54  94 CALM      30.02S
LEESBURG*      CLEAR     54  54 100 CALM      30.05S
MANASSAS*      CLEAR     54  54 100 CALM      30.04F
GAITHERSBURG*  CLEAR     54  50  87 CALM      30.07S

$$

MDZ006>007-011-014-300700-
BALTIMORE METRO

CITY           SKY/WX    TMP DP  RH WIND       PRES   REMARKS
BWI AIRPORT    PTCLDY    60  51  72 W5        30.02S
MD SCIENCE CTR   N/A     66  51  58 MISG      30.02S
MARTIN STATE   PTCLDY    61  57  88 CALM      30.02S
ANNAPOLIS      PTCLDY    65  52  62 W6        30.01S
FORT MEADE*    CLEAR     54  52  94 CALM      30.04F

$$

MDZ012-015-019>023-300700-
MARYLAND EASTERN SHORE

CITY           SKY/WX    TMP DP  RH WIND       PRES   REMARKS
OCEAN CITY     CLEAR     55  52  89 W5        29.99F
SALISBURY      NOT AVBL
BAY BRIDGE AP*   N/A     66  54  63 NW8       30.01S
CAMBRIDGE*     PTCLDY    59  54  82 CALM      30.00F
EASTON*        MOCLDY    63  59  87 CALM      30.04S

$$

MDZ017>025-300700-
SOUTHERN MARYLAND

CITY           SKY/WX    TMP DP  RH WIND       PRES   REMARKS
PATUXENT RIVER PTCLDY    61  52  72 W6        30.01S
ST INIGOES     CLOUDY    60  54  80 NW3       30.01S
LEONARDTOWN*   CLEAR     55  48  76 CALM      30.03F

$$

MDZ003>005-300700-
NORTH CENTRAL MARYLAND

CITY           SKY/WX    TMP DP  RH WIND       PRES   REMARKS
FREDERICK*     CLEAR     54  54 100 CALM      30.06S
HAGERSTOWN APT CLEAR     56  51  84 CALM      30.04S
WESTMINSTER*   PTCLDY    57  54  88 CALM      30.03S

$$

MDZ501>502-300700-
WESTERN MARYLAND

CITY           SKY/WX    TMP DP  RH WIND       PRES   REMARKS
OAKLAND*       CLEAR     50  50 100 W5        30.10R
CUMBERLAND*      N/A     52  50  93 CALM      30.10S VSB 1/4

$$

VAZ025>031-300700-
SHENANDOAH VALLEY

CITY           SKY/WX    TMP DP  RH WIND       PRES   REMARKS
WINCHESTER*    CLEAR     54  50  87 CALM      30.05S
STAUNTON*      PTCLDY    54  51  89 CALM      30.09S

$$

WVZ021-048>050-054>055-300700-
EASTERN WEST VIRGINIA PANHANDLE

CITY           SKY/WX    TMP DP  RH WIND       PRES   REMARKS
MARTINSBURG    CLEAR     53  48  83 S3        30.04F
PETERSBURG*    CLEAR     48  45  88 CALM      30.09S FOG

$$

VAZ036>039-050-300700-
CENTRAL FOOTHILLS

CITY           SKY/WX    TMP DP  RH WIND       PRES   REMARKS
CHARLOTTESVILL CLEAR     59  54  83 CALM      30.05F
ORANGE*        CLOUDY    57  54  88 CALM      30.06S

$$

VAZ055>057-300700-
NORTH AND CENTRAL PIEDMONT

CITY           SKY/WX    TMP DP  RH WIND       PRES   REMARKS
FREDERICKSBRG* CLEAR     59  55  87 CALM      30.03S
STAFFORD*      CLEAR     53  53 100 NW3       30.08S

$$

NCZ024-NYZ072-PAZ021-071-VAZ022-071-300700-
OTHER REGIONAL OBSERVATIONS

CITY           SKY/WX    TMP DP  RH WIND       PRES   REMARKS
NEW YORK CITY  MOCLDY    66  51  58 CALM      30.01S
PHILADELPHIA   PTCLDY    66  53  63 N5        29.99F
PITTSBURGH     CLEAR     56  51  84 CALM      30.03F
ROANOKE        MOCLDY    63  52  67 N3        30.09S
RICHMOND       CLOUDY    67  52  58 N3        30.03F
RALEIGH        PTCLDY    68  59  73 CALM      29.99F

$$

ANZ530>537-300700-
MARINE OBSERVATIONS

STATION/POSITION TIME  TEMP    WIND        PRES
                       AIR SEA DIR/SP/G
                 (UTC) (F)     (DEG/KT/KT) (MB)
THOMAS PT LIGHT  0600   66 77  310/ 11/ 12 1016.6F
BALT KEY BRIDGE  0600   67     280/  9/ 10 1016.1S
COVE POINT       0600   65     320/  8/ 10 1016.1S
LEWISETTA        0600   70 77  340/  4/  5 1016.0F
SOLOMONS ISLAND  0600      79                N/A
PINEY POINT      0600          360/  9/ 10   N/A

$$



USA.gov is the U.S. government's official web portal to all federal, state and local government web resources and services.